OPS 4682 DEB, 38458

Orbit data source: Space-Track

OPS 4682 DEB, 38458 is space debris in LEO originally from a launch on Sat, 03 Apr 1965 UTC launched from the Air Force Western Test Range (AFWTR). Debris objects in space refer to the collection of defunct objects orbiting the Earth. Examples of debris include non-operational satellites, rocket bodies, and fragments generated from explosions, collisions, or faulty payload assembly.

Loading next visibility...
Identifier
38458, 1965-027FP
Orbit
LEO
Country
Flag of USUS
Related business
Manufacturer
Unknown
Mission
Spacecraft
Bus & Motor
Unknown
Mass
Unknown
Launch date (UTC)
1965-04-03 (61 years ago)
Launch vehicle
Unknown
Launch site
Air Force Western Test Range (AFWTR)
Object type
Payload
Rocket body
Debris
Shape & HBR
Unknown shape, 0.1 m
Radar Cross Section
Small (<0.1 m²)

Expand to show TLE details & history
Last TLE update: 19 hours ago

TLE from 19 hours ago
0 OPS 4682 DEB
1 38458U 65027FP  26174.77290822  .00000190  00000-0  66633-3 0  9992
2 38458  90.2432   6.9766 0026293 262.6160  97.1970 12.93429314614517
Epoch: 2026-06-23T18:32Z
TLE epoch observation values (Epoch: 2026-06-23T18:32:59.270Z)
Latitude
-0.00003°
Longitude
176.78997°
Altitude
1,293.392 km
Speed
7.208 km/s
True Right ascension
00h 27m 54s
True Declination
0° 00' 00"
Sunlit
Object was in daylight at epoch
Visualization orbit readout
Latitude
Unknown
Longitude
Unknown
Altitude
Unknown
Speed
Unknown
Apparent Right ascension
Unknown
Apparent Declination
Unknown
Sunlit
N/A
Visualization observer readout
Local Sidereal Time
00:18:01
Azimuth
Unknown
Elevation
Unknown
Doppler factor
Unknown
Orbital elements
Apogee altitude
1,305.226 km
Perigee altitude
1,264.928 km
Semi-major axis
7,663.214 km
Eccentricity
0.00263
Inclination
90.2432°
RAAN
6.9766°
Arg. of periapsis
262.616°
True anomaly
97.4958°
Mean anomaly
97.197°
Eccentric anomaly
97.34641°
Mean motion
3.23539 °/min
Orbital period
111.27 mins
BSTAR
0.00066633
Loading maneuver chart data...
Computing Atmospheric mass density...
Loading historical data...
Loading historical data...
Loading historical data...
Loading historical data...
Loading historical data...
Loading historical data...
Loading historical data...

Documentation

Showing up to 5 results
|